Prestwick, United Kingdom

5:23 PM BST on May 22, 2017 (GMT +0100)
Prestwick

Weather History for EGPK - November, 2012

Change the Weather History Date:

Wednesday, November 21, 2012

  Actual Average Record
Temperature  
Mean Temperature 46 °F -  
Max Temperature 51 °F 45 °F 55 °F (1998)
Min Temperature 41 °F 35 °F 24 °F (2016)
Degree Days  
Heating Degree Days 19    
Moisture  
Dew Point 41 °F    
Average Humidity 83    
Maximum Humidity 93    
Minimum Humidity 67    
Precipitation  
Precipitation 0.00 in - - ()
Sea Level Pressure  
Sea Level Pressure 29.65 in    
Wind  
Wind Speed 6 mph ()    
Max Wind Speed 17 mph    
Max Gust Speed -    
Visibility 6.2 miles    
Events Rain    
Averages and records for this station are not official NWS values.
T = Trace of Precipitation, MM = Missing Value Source: Averaged Metar Reports

Daily Weather History Graph

Daily Weather History Graph

Search for Another Location

Airport or City:

Trip Planner

Search our weather history database for the weather conditions in past years. The results will help you decide how hot, cold, wet, or windy it might be!

Date:

Astronomy

Nov. 21, 2012 Rise Set
Actual Time 8:05 AM GMT 4:03 PM GMT
Civil Twilight 7:22 AM GMT 4:45 PM GMT
Nautical Twilight 6:36 AM GMT 5:31 PM GMT
Astronomical Twilight 5:52 AM GMT 6:15 PM GMT
Moon 1:14 PM GMT (11/21) 12:01 AM GMT (11/21)
Length of Visible Light 9h 23m
Length of Day
7h 57m
First Quarter, 59% of the Moon is Illuminated
Nov 21
First Quarter
Nov 28
Full
Dec 6
Last Quarter
Dec 13
New
Dec 20
First Quarter

Hourly Weather History & Observations

Time (GMT) Temp. Windchill Dew Point Humidity Pressure Visibility Wind Dir Wind Speed Gust Speed Precip Events Conditions
12:50 AM 46.4 °F 42.9 °F 41.0 °F 81% 29.62 in 6.2 mi South 6.9 mph - N/A   Mostly Cloudy
1:50 AM 46.4 °F 41.5 °F 41.0 °F 81% 29.62 in 6.2 mi South 10.4 mph - N/A   Mostly Cloudy
2:50 AM 44.6 °F 40.7 °F 41.0 °F 87% 29.65 in 6.2 mi South 6.9 mph - N/A   Mostly Cloudy
5:50 AM 42.8 °F 39.3 °F 39.2 °F 87% 29.68 in 6.2 mi SE 5.8 mph - N/A   Partly Cloudy
6:20 AM 42.8 °F 39.3 °F 39.2 °F 87% 29.68 in 6.2 mi ESE 5.8 mph - N/A   Partly Cloudy
6:50 AM 41.0 °F - 39.2 °F 93% 29.68 in 6.2 mi East 2.3 mph - N/A   Partly Cloudy
7:20 AM 41.0 °F 39.0 °F 37.4 °F 87% 29.68 in 6.2 mi ESE 3.5 mph - N/A   Partly Cloudy
7:50 AM 41.0 °F 38.0 °F 37.4 °F 87% 29.68 in 6.2 mi East 4.6 mph - N/A   Partly Cloudy
8:20 AM 41.0 °F 38.0 °F 39.2 °F 93% 29.68 in 6.2 mi ESE 4.6 mph - N/A   Partly Cloudy
8:50 AM 41.0 °F 39.0 °F 39.2 °F 93% 29.68 in 6.2 mi East 3.5 mph - N/A   Partly Cloudy
9:20 AM 42.8 °F 41.1 °F 39.2 °F 87% 29.68 in 6.2 mi East 3.5 mph - N/A   Partly Cloudy
9:50 AM 42.8 °F 41.1 °F 41.0 °F 93% 29.68 in 6.2 mi East 3.5 mph - N/A   Partly Cloudy
10:20 AM 44.6 °F - 41.0 °F 87% 29.68 in 6.2 mi East 2.3 mph - N/A   Partly Cloudy
10:50 AM 44.6 °F - 41.0 °F 87% 29.68 in 6.2 mi East 2.3 mph - N/A   Partly Cloudy
11:20 AM 46.4 °F 43.5 °F 42.8 °F 87% 29.68 in 6.2 mi ESE 5.8 mph - N/A   Partly Cloudy
11:50 AM 48.2 °F - 42.8 °F 82% 29.68 in 6.2 mi ESE 5.8 mph - N/A   Partly Cloudy
12:20 PM 50.0 °F - 42.8 °F 76% 29.68 in 6.2 mi SE 4.6 mph - N/A   Partly Cloudy
12:50 PM 50.0 °F - 44.6 °F 82% 29.68 in 6.2 mi Variable 2.3 mph - N/A   Scattered Clouds
1:20 PM 51.8 °F - 42.8 °F 71% 29.65 in 6.2 mi SSW 8.1 mph - N/A   Partly Cloudy
1:50 PM 51.8 °F - 42.8 °F 71% 29.65 in 6.2 mi South 6.9 mph - N/A   Partly Cloudy
2:20 PM 51.8 °F - 41.0 °F 67% 29.65 in 6.2 mi South 8.1 mph - N/A   Partly Cloudy
2:50 PM 50.0 °F - 41.0 °F 71% 29.65 in 6.2 mi South 5.8 mph - N/A   Partly Cloudy
3:20 PM 48.2 °F - 41.0 °F 76% 29.65 in 6.2 mi South 8.1 mph - N/A   Partly Cloudy
3:50 PM 46.4 °F 43.5 °F 39.2 °F 76% 29.65 in 6.2 mi SSE 5.8 mph - N/A   Partly Cloudy
4:20 PM 44.6 °F 40.7 °F 39.2 °F 81% 29.65 in 6.2 mi SSE 6.9 mph - N/A   Partly Cloudy
4:50 PM 44.6 °F 41.4 °F 39.2 °F 81% 29.65 in 6.2 mi SE 5.8 mph - N/A   Partly Cloudy
5:20 PM 44.6 °F 40.7 °F 41.0 °F 87% 29.65 in 6.2 mi SE 6.9 mph - N/A   Partly Cloudy
5:50 PM 42.8 °F 40.1 °F 39.2 °F 87% 29.65 in 6.2 mi SE 4.6 mph - N/A   Partly Cloudy
6:20 PM 42.8 °F 38.6 °F 39.2 °F 87% 29.65 in 6.2 mi SE 6.9 mph - N/A   Partly Cloudy
6:50 PM 41.0 °F 38.0 °F 37.4 °F 87% 29.68 in 6.2 mi East 4.6 mph - N/A   Partly Cloudy
7:20 PM 44.6 °F 39.7 °F 41.0 °F 87% 29.65 in 6.2 mi SE 9.2 mph - N/A   Partly Cloudy
7:50 PM 46.4 °F 40.7 °F 39.2 °F 76% 29.65 in 6.2 mi SSE 12.7 mph - N/A   Partly Cloudy
8:20 PM 46.4 °F 40.7 °F 39.2 °F 76% 29.65 in 6.2 mi SE 12.7 mph - N/A   Partly Cloudy
8:50 PM 46.4 °F 41.5 °F 41.0 °F 81% 29.65 in 6.2 mi SE 10.4 mph - N/A   Partly Cloudy
9:20 PM 48.2 °F - 42.8 °F 82% 29.62 in 6.2 mi South 16.1 mph - N/A   Partly Cloudy
9:50 PM 48.2 °F - 42.8 °F 82% 29.62 in 6.2 mi South 17.3 mph - N/A   Partly Cloudy
10:20 PM 50.0 °F - 44.6 °F 82% 29.62 in 6.2 mi SSE 12.7 mph - N/A   Scattered Clouds
10:50 PM 48.2 °F - 46.4 °F 93% 29.62 in 6.2 mi South 10.4 mph - N/A Rain Light Rain
11:20 PM 50.0 °F - 46.4 °F 87% 29.59 in 6.2 mi South 11.5 mph - N/A Rain Light Rain
11:50 PM 50.0 °F - 46.4 °F 87% 29.59 in 6.2 mi South 13.8 mph - N/A Rain Light Rain